Location: Bois de la Silve
(44.4667°N, 6.7833°E)
Time: 04:04:17
(UTC+00:00)

Cosmos 2082 Rocket - Pass Details

Date: 14 July 2020
Orbit: 833 x 853 km, 71.0° (Epoch: 06 August)

Event Time Altitude Azimuth Distance (km) Brightness Sun altitude
Exits shadow 00:40:47 14° 128° (SE) 2,179 4.1 -22.4°
Maximum altitude 00:43:09 18° 99° (E) 1,957 4.2 -22.3°
Drops below altitude 10° 00:46:55 10° 58° (ENE) 2,487 5.3 -22.1°
Sets 00:50:06 0° 40° (NE) 3,426 6.5 -21.9°
